sat.trackr.live / text

‹ back to catalog

STARLINK-35268

NORAD 65810 · 2025-218V

PAYLOAD ACTIVE UNKNOWN

§ Identity

Operator
Country
US
Launch date
2025-09-26
Launch site
AFWTR
Launch vehicle
Mass (kg)
RCS (m²)

Purposes: comms

External: N2YO · Heavens-Above · Gunter

§ Orbital elements

Epoch: 2026-09-20T13:53:43.895328Z

Period
93.91 min
Inclination
97.2844°
Eccentricity
0.0001815
Mean motion
15.33445086 rev/d
Perigee alt
464.3 km
Apogee alt
466.8 km
Semi-major
6,843.7 km
B*
3.1455e-4
RAAN
120.9238°
Arg perigee
91.3657°
Mean anomaly
268.7793°
Rev number
5,434

§ Raw data

STARLINK-352681 65810U 25218V   26263.57898027  .00010094  00000+0  31455-3 0  99972 65810  97.2844 120.9238 0001815  91.3657 268.7793 15.33445086 54344

JSON: /api/v1/satellites/65810 · /tle

For live sub-satellite position, see the globe view (requires WebGL).

§ Visibility from observer

Set your observer location to see the next 7 days of passes ≥ 10°. The values pass through the URL so the page stays shareable.

No JS? Fill the form by hand. The geolocation button needs JavaScript.